Location: Newark
(21.1200°N, 73.4000°E)
Time: 05:00:04
(UTC+00:00)

Explorer 11/Cluster Stage 4 - Pass Details

Date: 25 January 2020
Orbit: 467 x 1259 km, 28.8° (Epoch: 19 February)

Event Time Altitude Azimuth Distance (km) Brightness Sun altitude
Rises 13:53:42 0° 291° (WNW) 3,857 11.1 -14.6°
Reaches altitude 10° 13:56:42 10° 291° (WNW) 2,782 10.2 -15.3°
Maximum altitude 14:03:26 88° 22° (NNE) 853 6.7 -16.8°
Enters shadow 14:06:50 24° 110° (ESE) 1,546 7.6 -17.5°
Drops below altitude 10° 14:08:43 10° 111° (ESE) 2,205 - -18.0°
Sets 14:10:52 0° 111° (ESE) 3,012 - -18.5°
